Total_Precipitation_Accumulation
1.21 1.25 1.22 1.30 1.40 1.65 1.84 1.79 1.59 1.55 1.56 1.55 1.51 1.58 1.74 1.87 1.98 2.09 2.16 2.16 2.17 2.30 2.24 2.21 2.30 2.40 2.66 2.62 2.66 2.64 2.55 2.48 2.44 2.20 1.84 1.82 2.05 2.15 2.05 1.84 1.68 1.68 1.52
1.01 1.06 1.14 1.15 1.26 1.37 1.49 1.52 1.44 1.31 1.27 1.33 1.38 1.37 1.46 1.67 1.81 1.83 1.86 1.86 1.90 2.01 2.08 2.03 2.08 2.17 2.29 2.49 2.59 2.57 2.59 2.54 2.52 2.45 2.12 1.93 1.88 2.00 2.07 2.02 1.77 1.63 1.56
0.94 1.02 1.12 1.11 1.10 1.11 1.15 1.11 1.13 1.11 1.15 1.18 1.28 1.34 1.41 1.51 1.67 1.69 1.71 1.66 1.65 1.70 1.83 1.91 1.98 2.03 2.06 2.18 2.15 2.24 2.38 2.55 2.63 2.52 2.35 2.14 1.97 1.95 2.02 1.98 1.91 1.94 1.70
1.02 1.11 1.17 1.18 1.18 1.17 1.14 1.11 1.12 1.12 1.15 1.23 1.39 1.46 1.47 1.50 1.50 1.55 1.62 1.62 1.50 1.43 1.49 1.55 1.69 1.82 1.86 2.03 2.00 2.01 2.18 2.43 2.70 2.70 2.54 2.30 2.16 2.10 2.06 2.02 2.07 2.05 1.94
0.90 1.03 1.10 1.18 1.24 1.17 1.07 1.02 1.07 1.06 1.04 1.17 1.32 1.46 1.50 1.49 1.44 1.53 1.60 1.63 1.57 1.39 1.32 1.34 1.41 1.56 1.84 1.94 1.88 2.09 2.25 2.31 2.46 2.60 2.58 2.49 2.33 2.17 2.02 1.93 1.99 2.05 2.07
0.81 0.92 1.12 1.20 1.13 1.08 0.98 0.96 0.97 0.95 0.95 1.03 1.17 1.35 1.47 1.43 1.82 1.80 1.60 1.57 1.54 1.39 1.27 1.25 1.23 1.24 1.46 1.78 1.93 2.05 2.19 2.26 2.31 2.35 2.38 2.30 2.24 2.18 2.24 2.21 2.09 2.02 1.99
0.77 0.91 1.12 1.15 1.06 0.99 1.03 1.04 0.98 0.95 0.97 1.03 1.07 1.08 1.18 1.49 1.55 1.30 1.32 1.33 1.44 1.36 1.23 1.15 1.05 1.03 1.20 1.29 1.46 1.58 1.77 2.07 2.28 2.32 2.21 2.06 2.15 2.13 2.19 2.24 2.15 2.07 1.96
0.68 0.80 0.97 1.02 1.01 1.03 1.03 1.00 0.92 0.85 0.86 0.90 0.93 0.97 1.04 1.18 1.20 1.13 1.21 1.11 1.24 1.25 1.15 1.11 1.08 1.07 1.12 1.18 1.33 1.47 1.46 1.53 1.77 1.83 1.84 1.87 1.93 2.10 2.18 2.22 2.30 2.23 2.18
0.55 0.67 0.77 0.80 0.87 0.90 0.87 0.90 0.85 0.77 0.77 0.78 0.82 0.89 0.98 0.97 1.00 1.00 1.06 1.14 1.28 1.24 1.11 1.11 1.09 1.07 1.27 1.36 1.34 1.40 1.48 1.43 1.57 1.75 1.95 1.93 1.85 1.86 1.98 2.04 2.18 2.23 2.20
0.47 0.58 0.67 0.69 0.71 0.75 0.81 0.84 0.85 0.79 0.75 0.75 0.79 0.80 0.86 0.91 1.05 0.91 0.99 1.16 1.27 1.30 1.25 1.16 1.27 1.25 1.37 1.36 1.29 1.42 1.47 1.30 1.23 1.35 1.52 1.56 1.48 1.50 1.70 1.71 1.92 2.09 2.01
0.37 0.48 0.55 0.59 0.66 0.76 0.84 0.86 0.90 0.87 0.82 0.80 0.84 0.86 0.81 0.90 1.06 1.02 1.03 1.07 1.27 1.32 1.34 1.27 1.14 1.24 1.24 1.29 1.33 1.39 1.58 1.44 1.30 1.36 1.48 1.46 1.34 1.33 1.40 1.47 1.59 1.87 1.94
0.27 0.35 0.48 0.57 0.64 0.73 0.84 0.89 0.88 0.89 0.90 0.91 0.89 0.90 0.87 0.87 0.94 0.98 1.01 1.06 1.16 1.19 1.28 1.25 1.19 1.30 1.17 1.14 1.14 1.26 1.55 1.49 1.34 1.36 1.40 1.40 1.33 1.23 1.28 1.31 1.39 1.51 1.64
0.22 0.27 0.35 0.42 0.47 0.56 0.67 0.78 0.83 0.84 0.85 0.86 0.92 0.99 1.00 0.93 0.99 1.11 0.98 0.96 1.01 1.02 1.05 1.18 1.17 1.15 1.08 1.02 1.08 1.19 1.32 1.44 1.44 1.38 1.29 1.25 1.24 1.23 1.28 1.25 1.26 1.35 1.38
0.23 0.26 0.28 0.31 0.34 0.40 0.55 0.62 0.67 0.73 0.78 0.84 0.92 1.02 1.13 1.08 1.01 0.98 0.93 0.93 0.96 0.90 0.85 0.87 0.89 0.92 0.92 0.93 0.97 1.02 1.13 1.32 1.45 1.36 1.23 1.24 1.25 1.27 1.30 1.22 1.22 1.29 1.33
0.22 0.24 0.25 0.27 0.30 0.35 0.43 0.57 0.65 0.70 0.76 0.81 0.88 1.03 1.10 1.11 1.13 1.23 1.20 1.11 1.06 1.03 0.98 0.88 0.82 0.84 0.93 1.00 1.00 0.98 1.04 1.17 1.27 1.26 1.21 1.19 1.23 1.27 1.26 1.20 1.17 1.21 1.25
0.28 0.26 0.27 0.29 0.32 0.35 0.41 0.50 0.58 0.59 0.61 0.65 0.70 0.76 0.85 0.92 0.98 0.99 1.03 1.03 1.00 0.99 1.06 1.05 1.02 1.05 1.06 1.05 1.05 0.99 0.95 1.00 1.12 1.20 1.20 1.15 1.12 1.17 1.22 1.22 1.20 1.21 1.21
0.38 0.35 0.33 0.32 0.36 0.41 0.43 0.45 0.52 0.54 0.57 0.60 0.62 0.67 0.73 0.78 0.79 0.82 0.88 0.93 0.97 0.96 1.03 1.02 0.95 0.89 0.89 0.87 0.89 0.90 0.90 0.90 0.96 1.07 1.12 1.13 1.10 1.12 1.21 1.25 1.25 1.29 1.29
0.29 0.32 0.34 0.38 0.37 0.40 0.47 0.54 0.60 0.66 0.62 0.56 0.57 0.63 0.64 0.65 0.68 0.71 0.79 0.82 0.77 0.75 0.78 0.85 0.82 0.78 0.73 0.74 0.74 0.72 0.75 0.80 0.83 0.90 0.98 1.03 1.08 1.11 1.17 1.22 1.25 1.24 1.26
0.27 0.31 0.40 0.44 0.41 0.41 0.50 0.61 0.67 0.69 0.67 0.59 0.51 0.51 0.54 0.53 0.58 0.64 0.68 0.68 0.67 0.60 0.60 0.67 0.72 0.74 0.68 0.63 0.61 0.60 0.62 0.64 0.68 0.76 0.84 0.90 0.96 1.01 1.05 1.11 1.16 1.23 1.24
0.32 0.39 0.47 0.51 0.47 0.48 0.52 0.53 0.53 0.57 0.57 0.53 0.52 0.55 0.56 0.52 0.50 0.53 0.55 0.57 0.60 0.58 0.60 0.63 0.65 0.67 0.65 0.63 0.60 0.57 0.59 0.63 0.66 0.71 0.78 0.88 0.93 0.94 0.93 0.98 1.07 1.13 1.11
0.42 0.42 0.43 0.49 0.50 0.48 0.48 0.47 0.49 0.52 0.50 0.48 0.50 0.54 0.58 0.53 0.52 0.52 0.51 0.52 0.53 0.57 0.59 0.60 0.62 0.67 0.67 0.65 0.64 0.63 0.62 0.62 0.63 0.68 0.72 0.76 0.81 0.85 0.88 0.91 0.94 0.98 1.03
0.43 0.43 0.42 0.49 0.52 0.47 0.45 0.46 0.51 0.53 0.53 0.50 0.48 0.48 0.51 0.48 0.49 0.51 0.53 0.56 0.56 0.58 0.60 0.60 0.63 0.66 0.71 0.70 0.68 0.68 0.69 0.68 0.67 0.69 0.72 0.73 0.76 0.78 0.81 0.83 0.86 0.90 0.93
0.45 0.44 0.44 0.47 0.49 0.47 0.45 0.47 0.52 0.56 0.54 0.51 0.51 0.50 0.48 0.46 0.46 0.48 0.54 0.62 0.67 0.66 0.63 0.61 0.64 0.70 0.73 0.72 0.70 0.70 0.70 0.67 0.66 0.68 0.73 0.76 0.78 0.81 0.84 0.86 0.86 0.91 0.96
0.48 0.49 0.51 0.53 0.52 0.54 0.58 0.57 0.55 0.55 0.56 0.55 0.52 0.51 0.50 0.47 0.47 0.48 0.54 0.61 0.66 0.67 0.67 0.64 0.65 0.70 0.75 0.76 0.75 0.72 0.68 0.68 0.65 0.65 0.71 0.77 0.79 0.80 0.81 0.85 0.88 0.90 0.96
0.48 0.49 0.51 0.55 0.56 0.57 0.62 0.61 0.57 0.56 0.59 0.62 0.62 0.58 0.54 0.51 0.50 0.50 0.52 0.59 0.62 0.61 0.62 0.63 0.67 0.71 0.72 0.71 0.72 0.74 0.84 0.84 0.77 0.73 0.71 0.77 0.80 0.81 0.84 0.88 0.92 0.96 1.01
0.47 0.50 0.55 0.61 0.63 0.62 0.63 0.65 0.63 0.60 0.62 0.65 0.68 0.71 0.68 0.62 0.57 0.56 0.57 0.60 0.60 0.59 0.59 0.60 0.63 0.66 0.69 0.70 0.70 0.76 0.81 0.76 0.76 0.78 0.76 0.77 0.83 0.88 0.92 0.96 0.99 1.06 1.14